Theta_e
311 311 311 311 310 310 308 308 311 310 310 313 314 314 319 322 314 310 320 328 322 316 317 323 329 334 334 334 334 333 334 334 334 335 335 335 336 337 337 336 334 332 331 329 328 328 327 327 326 325 324 323 323 321 320 319 317 319 324 323 320 319 318 317 316 315 314 313 311 310 309 308 307 306 305 304 304 303 303 303 303 303 303 303 303 303 303
312 313 312 312 311 311 309 308 310 310 311 312 312 313 318 320 318 318 322 327 326 321 320 323 326 330 333 332 332 333 333 334 334 335 335 336 337 337 336 334 332 331 329 328 327 327 326 326 325 324 323 322 321 320 319 318 316 318 322 321 318 317 316 315 315 314 312 311 309 309 308 307 306 305 305 304 304 303 303 303 303 303 303 303 303 303 303
313 314 314 314 312 312 312 309 308 309 312 313 312 313 317 317 317 320 322 323 324 323 326 329 328 330 332 332 332 333 334 334 334 335 335 335 336 335 334 333 331 330 329 328 328 327 327 326 325 324 322 321 320 319 317 317 316 316 319 319 317 316 314 313 313 312 311 310 308 308 307 306 305 305 304 304 304 303 303 302 301 302 303 303 303 303 303
315 315 315 314 311 311 312 310 309 310 313 314 313 314 317 316 315 319 320 318 316 322 332 334 331 331 333 333 332 333 334 333 334 334 335 335 335 334 334 333 331 331 329 328 328 328 327 327 325 324 322 320 319 318 316 316 316 315 315 316 315 314 314 313 312 311 309 308 307 307 306 306 305 304 304 304 303 303 302 301 300 300 302 303 303 303 303
316 315 314 312 310 310 310 311 312 312 313 315 314 314 318 319 316 318 317 314 318 329 334 335 334 333 333 333 333 333 333 333 333 334 334 333 333 334 334 333 331 330 330 329 329 329 327 325 324 323 321 319 318 317 316 315 315 314 313 314 314 313 312 312 311 310 309 308 307 306 305 305 305 304 304 303 302 302 302 300 298 298 300 302 303 303 303
315 315 313 312 310 310 312 315 315 312 312 314 314 314 317 318 318 320 320 320 327 332 330 332 335 333 332 333 332 332 332 333 333 333 333 333 333 333 333 332 331 330 330 329 329 327 326 324 323 322 320 319 318 317 316 315 314 313 312 312 312 312 311 311 310 309 308 307 306 305 305 304 304 304 303 302 302 302 301 298 295 296 299 302 302 303 303
314 314 312 311 311 311 315 317 315 314 314 315 314 315 318 318 318 322 325 324 325 326 325 328 330 330 331 331 331 331 331 332 333 333 332 332 332 332 333 332 331 330 330 329 327 325 324 323 322 321 320 319 318 317 316 315 314 313 312 311 311 311 310 309 309 308 307 306 306 305 304 304 303 303 302 302 302 301 298 295 294 295 298 301 302 302 302
313 312 310 310 312 314 316 315 313 315 316 316 314 316 320 321 319 319 321 322 323 324 324 326 328 329 330 330 330 331 331 332 333 333 332 332 332 332 332 332 331 330 330 328 326 325 324 322 321 320 320 319 318 316 315 315 313 313 312 311 310 310 309 308 307 307 306 304 304 303 302 303 302 302 302 302 302 299 295 294 294 295 297 300 301 302 302
313 313 312 314 317 318 319 318 316 316 318 318 317 316 318 323 321 318 320 324 327 327 326 328 329 330 332 333 332 331 330 332 333 332 332 332 332 332 332 332 332 331 329 328 326 324 323 321 321 320 319 318 317 315 314 314 313 313 311 310 309 308 307 306 305 304 304 304 303 303 302 302 302 302 302 302 301 298 295 294 294 295 297 300 301 301 301
311 314 315 317 319 319 319 318 318 318 318 321 323 318 317 322 322 319 321 324 327 329 328 328 330 331 334 336 334 331 330 330 331 331 332 332 332 333 333 333 332 331 329 327 325 323 322 321 320 320 319 318 317 315 313 313 312 312 311 310 309 307 306 304 304 305 307 307 305 304 303 303 303 302 302 302 301 298 294 293 294 295 297 299 300 300 301
310 313 316 317 317 317 318 319 318 317 316 319 321 315 315 321 322 319 320 322 325 328 329 330 331 332 334 335 333 331 330 329 330 330 331 331 332 333 332 332 332 330 329 326 325 323 322 321 320 319 318 317 316 314 314 312 312 312 311 310 308 307 305 304 304 307 309 308 306 305 304 303 302 302 302 301 300 296 293 293 294 295 296 298 299 300 300
310 311 313 315 316 317 318 319 318 317 314 316 318 313 314 322 322 317 318 321 324 327 330 331 331 331 331 332 330 329 329 329 329 330 330 330 331 332 332 332 331 330 328 326 324 323 323 322 320 318 318 317 315 314 314 313 312 312 311 310 308 306 305 304 305 307 308 307 306 305 304 303 302 302 302 301 298 295 293 293 294 295 296 297 298 299 299
311 312 313 314 316 318 319 320 319 317 315 315 314 314 317 323 323 318 317 321 324 327 329 331 330 328 327 328 327 326 329 330 329 330 331 332 331 331 332 331 330 330 328 326 325 324 323 321 319 318 317 316 315 315 314 313 313 312 311 309 307 306 305 304 306 307 307 305 305 305 304 303 303 302 301 301 298 294 293 293 294 295 296 297 298 298 298
311 312 315 315 316 317 319 319 317 316 316 314 315 318 320 323 324 320 317 320 324 327 329 330 328 326 325 324 324 327 330 330 329 329 330 331 331 331 330 330 329 329 328 326 325 324 322 320 319 318 317 316 316 315 314 313 313 312 310 308 307 305 304 304 306 308 307 305 304 303 302 303 302 301 301 301 299 294 292 293 294 295 296 297 297 297 297
311 313 316 317 318 319 319 320 317 316 318 317 318 322 323 322 322 322 320 320 323 326 329 328 326 328 330 327 325 327 329 329 329 328 329 329 330 330 329 329 328 328 327 327 325 323 321 320 319 318 317 317 316 315 314 313 313 311 310 308 306 305 305 305 306 306 305 304 303 302 302 302 302 301 300 300 297 294 292 292 293 295 296 296 297 297 296
313 315 317 319 320 319 318 320 320 321 322 319 318 324 328 324 322 324 323 322 322 324 328 328 326 328 332 330 326 326 328 328 327 327 328 329 329 329 329 328 328 328 327 327 325 323 321 320 319 318 317 317 316 314 314 313 312 311 309 308 306 305 304 304 305 305 304 303 302 302 302 302 302 301 299 298 296 294 292 292 294 295 295 295 296 296 296
313 315 318 321 321 318 317 318 320 322 322 318 317 323 327 326 323 324 325 323 321 322 325 328 327 327 329 330 328 327 327 327 327 327 327 328 329 329 328 327 327 327 327 326 325 323 320 319 318 317 317 317 316 315 314 313 311 310 309 307 306 305 304 304 304 304 303 302 302 302 302 302 301 300 298 297 295 293 292 293 294 294 295 295 295 295 295
316 317 319 321 321 320 319 318 318 320 321 319 318 322 326 325 322 322 323 323 323 321 323 326 327 327 328 330 328 325 326 326 326 326 326 327 328 328 328 326 326 326 326 325 324 322 320 318 318 317 317 318 317 315 314 312 311 310 308 307 306 305 304 304 304 303 302 302 302 302 301 301 301 300 298 297 295 293 292 293 294 294 294 294 294 295 295
321 322 321 320 320 321 320 320 320 320 320 318 318 320 323 323 321 321 321 322 323 323 323 324 326 326 327 328 326 323 324 325 324 324 325 325 326 326 326 325 324 325 326 325 323 321 319 318 317 317 317 317 317 315 313 312 310 309 308 307 305 304 304 304 303 303 302 302 301 301 301 301 300 300 299 298 296 293 292 293 294 294 293 293 295 296 296
321 322 321 320 320 320 321 323 323 320 318 319 319 318 318 319 319 320 319 320 323 324 323 324 326 326 325 325 325 323 322 323 324 324 324 325 325 325 324 323 324 325 325 324 323 321 319 318 318 317 316 316 316 315 313 311 310 309 307 306 306 305 304 304 303 302 302 302 301 301 301 301 300 300 299 298 296 294 294 294 294 293 292 293 295 297 297
322 321 321 321 322 322 324 327 326 322 319 319 319 319 319 319 321 321 320 320 321 323 324 325 327 327 324 322 323 323 322 322 322 322 323 325 325 323 322 322 323 324 324 323 322 320 319 318 318 317 316 315 315 314 312 311 310 309 307 306 305 305 304 303 303 302 302 302 301 301 301 301 301 300 300 299 298 297 298 298 296 294 292 293 294 296 297
322 322 323 323 322 322 325 326 326 326 323 320 320 322 322 321 322 324 325 323 321 321 322 322 326 329 326 321 321 322 321 321 321 321 322 324 324 323 322 322 322 323 323 322 321 320 318 318 317 317 316 314 313 313 312 311 310 309 307 305 305 304 304 303 302 302 302 301 301 301 301 301 301 300 300 300 300 300 300 300 299 296 293 292 294 295 297
320 320 321 324 324 323 324 324 324 324 322 321 322 325 323 321 321 323 325 326 324 323 322 319 322 327 326 322 321 321 320 319 321 321 322 323 322 322 321 322 323 323 322 321 320 319 317 317 317 316 315 313 312 312 311 311 310 309 307 305 304 304 303 303 303 302 302 301 301 301 301 301 301 301 300 300 300 300 300 300 299 296 293 293 295 296 297
320 317 318 322 326 326 324 324 324 322 318 318 321 322 321 320 320 320 321 323 323 323 323 320 319 322 323 321 321 321 319 318 320 321 321 321 321 320 320 321 322 321 320 320 319 317 316 316 316 315 314 313 312 312 311 311 310 308 307 306 305 304 303 303 303 302 302 301 301 301 301 301 301 300 299 299 298 299 299 299 299 298 296 295 295 296 298
319 317 315 317 322 323 321 320 319 316 314 316 319 320 319 318 319 319 321 321 319 319 321 320 318 319 321 320 320 320 319 318 319 319 319 318 318 319 320 321 321 320 319 318 318 316 315 315 315 314 313 312 311 311 311 310 309 308 307 306 306 304 303 303 302 302 301 301 301 301 301 301 300 300 299 299 298 298 298 299 299 299 298 298 296 296 297
317 316 314 314 316 317 317 318 317 315 315 316 318 318 316 315 317 318 318 317 316 316 318 318 317 317 318 319 319 319 318 317 316 317 318 318 318 318 319 320 319 318 318 317 316 315 314 314 314 314 313 311 311 311 310 309 308 308 307 307 306 305 304 303 302 302 301 301 301 301 301 301 300 300 299 299 299 298 297 297 297 297 298 299 299 297 297
315 315 317 319 320 317 317 318 318 316 315 315 317 317 313 312 315 316 315 315 314 314 314 315 316 317 317 317 317 317 316 315 316 317 318 318 318 318 319 318 317 317 316 316 315 314 314 313 313 313 312 311 311 311 310 309 308 307 307 306 306 305 304 303 302 302 302 301 301 301 301 300 300 300 299 299 299 298 297 296 296 296 297 298 299 297 296
317 316 318 323 325 322 319 316 315 314 313 313 315 315 313 314 316 317 317 317 316 315 314 313 315 317 317 316 316 316 315 316 317 318 318 317 316 317 316 316 316 316 315 315 314 313 313 313 313 313 312 311 311 310 310 309 308 307 306 306 305 304 303 303 302 302 302 301 301 301 301 300 300 300 299 299 298 298 297 297 296 296 296 296 297 296 296
324 320 318 318 318 317 315 312 312 313 313 312 312 313 314 317 320 319 318 316 315 317 316 314 313 315 316 316 317 317 316 316 317 316 316 315 314 315 315 315 315 315 314 314 314 313 313 313 314 313 312 311 310 310 309 309 308 307 306 306 305 304 303 302 302 302 301 301 301 301 300 300 300 299 299 299 298 298 298 297 296 296 296 297 297 297 298
322 320 316 313 312 313 314 314 315 316 314 314 315 315 315 318 320 319 316 313 313 315 315 312 312 315 315 315 316 316 315 316 315 315 314 313 313 313 314 314 314 314 314 314 313 313 313 313 313 313 312 311 310 310 309 308 308 307 306 306 305 304 304 303 302 302 301 301 301 300 300 300 299 299 299 298 298 298 298 297 297 297 297 297 298 298 299
317 315 314 313 313 314 316 316 316 316 315 315 316 317 317 318 319 319 316 314 313 313 312 311 313 315 313 312 312 313 314 314 314 313 312 312 312 313 313 313 314 315 314 314 313 312 313 313 313 313 312 311 310 309 309 308 307 307 306 306 305 305 304 303 302 302 302 301 301 300 300 300 299 299 299 298 298 298 298 298 298 297 297 298 298 299 299
314 313 313 314 315 315 315 315 315 316 316 316 316 317 317 318 318 318 317 315 313 312 312 313 314 312 310 309 310 312 313 313 312 312 311 311 311 312 312 313 314 314 314 313 313 313 313 313 313 312 312 311 310 309 308 308 308 307 306 305 304 304 304 303 302 302 301 301 301 300 300 300 299 299 299 298 298 298 298 298 298 297 297 297 298 299 299
317 316 315 316 315 315 316 316 315 315 316 315 315 315 314 314 315 316 314 313 312 313 314 313 310 308 308 309 310 311 312 312 311 311 311 310 310 311 312 312 312 312 312 313 313 313 313 312 312 312 311 311 310 309 308 308 307 307 306 305 304 304 303 302 302 302 301 301 301 300 300 300 300 299 299 299 298 298 298 298 298 297 297 298 298 299 299
320 320 318 317 317 318 318 316 316 316 315 313 311 311 311 311 312 312 311 311 314 315 313 309 307 307 308 310 310 311 313 313 313 312 311 310 310 310 311 311 311 311 311 312 312 312 312 311 311 311 311 310 310 309 308 307 307 306 306 306 305 304 303 302 302 301 301 301 301 300 300 300 300 300 299 299 298 298 298 298 298 298 298 298 299 299 298
319 320 318 316 317 318 318 317 317 316 315 313 311 310 310 310 309 309 309 310 312 311 307 305 305 307 307 307 307 308 308 308 308 308 309 309 310 310 310 310 310 311 310 310 310 311 311 311 310 310 310 310 309 309 308 307 307 306 306 305 304 303 303 302 302 302 301 301 301 300 300 300 300 300 300 299 299 298 298 298 298 298 297 298 298 298 298
317 320 318 314 314 317 317 315 314 313 313 313 312 310 310 309 308 309 309 308 307 306 306 305 306 306 304 303 303 303 302 301 302 304 307 308 308 309 310 310 311 311 311 310 310 309 310 310 309 309 309 309 309 308 308 307 306 306 305 305 304 303 303 302 302 301 301 301 301 300 300 300 300 300 299 299 299 298 298 298 298 297 297 298 298 297 297
313 317 317 314 313 315 313 311 309 309 310 311 310 310 310 309 307 306 306 306 305 306 306 306 306 305 302 300 299 300 300 301 303 305 306 307 307 308 310 310 311 312 312 312 310 309 309 310 309 309 309 309 308 308 308 307 306 305 305 304 304 303 302 302 301 301 301 301 301 301 300 300 300 300 299 299 299 298 298 298 297 297 298 299 298 297 297
308 309 311 311 310 310 309 308 307 309 309 309 309 308 308 307 306 305 305 305 305 306 306 305 305 303 301 300 300 300 301 303 305 305 306 306 307 308 310 311 311 311 312 311 310 309 309 310 309 308 308 308 308 308 308 307 306 306 305 304 304 303 302 302 301 301 301 301 301 300 300 300 300 299 299 299 298 298 298 298 298 298 298 299 298 297 297
308 306 307 307 307 307 307 307 307 308 310 310 309 307 305 305 305 305 305 304 304 305 305 304 305 304 303 303 303 302 302 303 304 305 306 306 307 307 308 308 308 309 309 309 308 308 309 309 309 309 309 309 308 308 307 307 306 305 304 304 303 303 303 302 302 301 301 300 300 300 300 300 299 299 299 299 298 298 298 298 298 298 299 298 298 297 297
309 307 307 307 307 308 308 308 308 308 308 309 309 308 306 305 305 306 305 305 304 304 304 304 305 306 305 305 304 303 302 301 302 304 305 306 306 307 308 307 307 307 307 307 308 308 309 309 309 309 309 309 308 308 307 307 306 304 304 304 303 302 302 302 302 301 301 300 300 300 299 299 299 299 299 299 299 299 299 299 299 299 299 298 298 297 297
307 307 307 307 308 309 309 309 308 307 307 307 308 308 307 306 307 307 307 305 304 304 304 304 304 305 304 303 302 301 301 301 302 304 305 307 308 309 310 309 307 307 307 307 307 307 308 308 308 308 308 308 308 307 307 306 305 304 303 303 303 302 302 302 301 301 301 300 300 300 300 300 299 299 299 299 299 299 299 299 299 299 298 298 298 298 298
307 307 307 308 308 309 309 309 309 308 307 307 307 307 307 307 307 307 307 305 305 305 304 303 303 303 302 301 301 301 301 301 303 304 305 306 307 309 309 308 307 307 307 307 307 307 307 307 307 307 306 307 307 307 306 306 304 303 303 303 303 302 302 301 301 301 301 300 300 300 299 299 299 299 299 299 299 299 299 299 298 298 298 298 298 298 298
307 307 308 308 308 308 309 309 309 310 308 306 306 307 307 307 307 307 306 305 305 305 304 303 303 302 301 301 302 302 302 302 303 305 306 305 305 306 307 307 306 306 307 307 307 307 307 307 306 306 306 305 305 305 305 304 303 303 302 302 302 302 301 301 301 301 300 300 300 299 299 299 299 299 299 299 299 299 299 299 298 298 298 298 298 298 299
306 308 309 308 307 308 308 308 309 310 309 307 306 306 307 306 306 307 306 306 305 305 304 304 303 302 302 302 303 304 303 303 303 305 306 306 306 305 305 305 305 306 306 306 306 306 306 306 306 306 305 304 304 304 303 303 303 303 302 302 301 301 301 301 301 301 301 300 300 300 300 300 299 299 299 299 300 299 299 299 299 299 299 298 299 299 299
306 307 307 307 307 308 308 309 309 309 309 307 306 306 306 307 307 306 306 306 305 305 304 304 303 302 302 302 302 303 303 303 303 304 305 306 306 305 304 304 305 305 306 306 306 305 305 305 305 304 304 304 303 302 302 302 302 302 302 302 301 301 301 301 301 301 301 300 300 300 300 300 299 299 300 300 300 300 300 300 300 299 299 299 299 299 299
306 306 306 307 308 308 308 308 307 307 307 307 307 307 306 306 307 307 306 306 305 305 304 304 303 303 302 302 302 301 302 302 303 303 304 305 305 304 303 304 304 305 305 305 305 305 305 304 304 304 303 303 302 302 302 302 302 302 302 301 301 301 301 301 301 301 301 301 301 301 301 300 300 300 300 301 300 300 300 300 300 300 299 299 299 300 300
306 306 306 307 307 306 306 306 306 306 307 308 309 308 307 306 307 307 306 305 305 305 305 304 304 303 303 303 302 302 303 303 303 302 302 303 303 303 303 303 304 305 305 305 305 305 304 304 304 304 303 303 302 301 301 301 301 301 301 301 301 301 301 301 301 301 301 301 301 301 301 301 301 300 300 300 300 300 300 300 300 300 300 300 301 301 301
307 307 306 306 306 306 306 306 307 308 309 309 308 308 307 307 307 306 306 306 306 306 306 305 305 304 304 303 303 303 303 304 304 303 302 302 302 303 303 303 304 304 305 305 305 304 304 304 303 303 303 303 302 301 301 301 301 301 301 301 301 301 301 301 301 301 301 301 301 301 301 301 300 300 300 300 300 300 301 300 300 300 301 301 301 301 301
306 306 305 305 305 306 306 307 308 309 308 308 307 307 306 306 307 307 306 307 307 306 306 306 305 305 304 305 304 304 303 304 304 304 303 302 302 302 303 303 304 304 304 304 305 304 304 303 303 303 303 303 302 302 301 301 301 301 301 301 301 301 301 301 301 301 301 301 301 301 301 300 300 300 300 300 301 301 301 300 300 300 300 300 300 300 300
305 305 306 306 307 307 307 308 309 309 308 307 306 306 306 307 308 307 307 307 307 307 307 307 306 306 305 305 305 304 304 304 304 303 303 303 302 302 302 303 303 304 304 304 304 304 304 304 303 303 303 303 302 302 302 302 301 301 301 301 301 301 301 301 301 301 301 301 301 301 301 301 301 301 301 301 301 301 300 300 300 300 300 300 300 300 300
305 306 307 306 306 306 306 307 307 307 306 306 306 306 307 307 308 307 306 307 307 308 308 308 307 306 306 306 306 305 305 305 304 304 304 303 302 302 302 303 303 303 303 303 303 303 303 304 303 303 303 302 302 302 302 302 301 301 301 301 301 301 301 301 301 301 301 301 301 302 302 302 302 301 301 301 301 300 300 300 300 300 300 300 300 300 300
303 303 303 304 304 304 304 304 304 304 304 305 306 306 306 307 307 307 306 306 307 308 309 309 308 307 307 306 306 306 306 305 305 305 305 304 303 303 302 302 303 303 303 303 303 303 303 303 303 303 303 302 302 302 302 301 301 301 301 301 301 302 302 301 301 301 301 302 302 301 301 301 301 301 301 301 301 300 300 300 300 300 300 300 299 299 299
Wind_Speed
7 7 8 6 4 5 7 8 10 12 11 11 11 8 3 4 6 4 2 3 6 12 12 3 2 6 8 8 9 10 12 14 15 16 17 16 17 16 15 15 17 17 17 15 15 18 22 24 24 22 20 21 24 27 31 32 31 32 32 33 34 33 33 33 33 33 33 32 31 30 28 28 27 27 27 26 24 23 22 22 22 22 22 22 22 22 22
9 10 10 8 7 6 7 9 11 13 13 13 13 10 6 5 5 3 2 5 9 12 8 4 2 4 6 7 9 11 14 16 17 18 18 17 18 18 15 16 17 18 19 18 17 19 21 24 24 22 21 21 21 24 31 34 31 32 34 34 34 34 33 33 33 34 33 32 31 30 29 29 29 29 28 27 25 24 23 22 21 22 23 23 23 23 22
9 10 9 8 10 10 9 9 11 11 11 12 12 11 7 4 5 5 4 5 9 8 2 3 2 5 7 9 12 14 14 17 18 18 17 15 17 18 17 17 17 17 19 19 18 20 23 25 25 23 22 24 24 23 28 34 33 31 34 35 35 34 34 33 34 34 34 33 32 31 30 30 30 29 28 27 26 25 23 22 22 23 24 24 24 24 23
7 5 4 3 7 7 7 9 12 12 11 9 9 7 6 6 8 7 4 6 9 5 2 3 2 6 8 10 14 15 15 16 18 18 17 16 18 20 20 19 18 18 19 20 20 22 25 27 27 24 23 26 27 24 26 34 34 30 31 34 35 34 34 34 34 34 34 33 32 32 31 31 30 30 29 28 27 25 23 22 23 24 25 26 25 25 24
5 4 2 5 9 5 4 8 11 13 11 7 5 4 4 7 8 6 6 9 7 2 1 3 4 7 10 11 13 14 16 18 18 18 19 19 20 21 20 19 19 19 19 21 24 27 28 27 27 27 27 28 28 27 29 33 34 31 31 33 35 34 34 35 35 35 35 34 33 33 32 31 31 31 30 29 27 25 23 22 23 25 26 26 26 25 25
5 5 2 6 8 4 3 2 6 12 13 11 10 8 7 8 7 3 4 7 4 1 2 6 5 7 7 6 8 10 14 17 18 19 21 21 20 20 19 19 19 18 19 20 23 25 25 24 25 26 28 29 30 30 31 32 32 32 31 32 34 35 35 35 35 35 35 34 34 33 32 32 32 31 31 29 26 24 23 23 24 25 27 27 26 26 25
3 4 1 6 5 3 1 4 1 7 9 10 12 10 7 9 8 5 6 9 6 3 5 6 5 4 3 2 6 10 14 15 16 18 19 19 20 19 18 19 18 18 18 19 20 21 23 24 25 25 25 27 30 31 32 33 33 33 31 31 33 35 35 35 36 36 36 36 34 33 33 33 33 32 31 29 26 24 23 23 25 26 26 27 27 26 26
2 1 3 4 1 2 3 4 1 2 3 4 8 8 6 7 9 9 10 9 5 3 5 5 3 3 3 3 6 12 15 14 14 17 18 19 21 20 19 21 20 18 18 19 20 21 21 23 26 26 24 26 28 28 30 34 35 35 33 30 30 33 35 35 35 34 32 31 30 31 32 33 32 32 30 28 26 24 24 25 25 25 26 27 27 27 26
1 2 2 1 2 1 1 1 1 2 3 4 6 7 6 5 7 9 9 6 3 4 4 3 3 4 5 3 6 11 14 13 13 14 16 18 19 19 20 20 18 18 18 20 22 24 23 23 26 27 26 26 27 28 30 31 31 31 31 29 29 32 33 31 30 28 26 25 25 28 31 33 33 32 31 28 26 25 25 26 25 25 26 27 27 27 26
1 2 1 1 2 3 1 0 1 1 1 2 3 4 5 3 5 8 8 6 5 6 5 5 6 6 4 2 5 9 13 13 11 10 11 14 16 18 21 21 18 18 21 24 26 27 27 25 26 29 29 27 28 29 28 28 25 23 24 26 28 30 30 29 30 31 30 29 30 31 33 34 34 33 30 28 26 25 25 26 26 26 26 27 27 26 26
2 1 1 1 2 1 1 1 1 2 2 3 4 4 5 4 5 7 8 7 7 8 8 8 7 5 4 4 3 7 13 13 12 12 12 14 16 19 23 24 22 22 23 25 26 27 26 25 27 32 33 31 30 28 24 24 24 20 21 25 27 30 31 32 33 34 34 34 34 34 35 34 33 32 29 27 25 24 25 25 26 27 27 27 27 26 25
2 1 1 2 1 0 1 3 3 2 2 4 5 6 4 3 5 7 8 8 8 8 8 8 6 3 3 2 2 4 12 13 12 13 14 16 17 19 23 25 25 23 24 25 25 26 26 27 29 32 32 31 30 27 22 23 23 22 23 27 29 31 33 34 35 35 35 35 35 35 35 34 32 30 28 26 24 24 25 25 26 27 26 26 27 27 25
1 0 1 1 1 1 1 3 3 1 2 4 5 5 2 2 3 6 7 7 7 8 8 6 3 2 3 5 5 3 12 13 11 12 13 16 18 20 24 25 24 22 23 25 26 25 26 27 30 32 32 29 27 23 21 22 23 23 26 28 29 31 33 34 36 35 35 35 36 36 36 35 33 31 29 26 24 25 25 25 26 27 26 26 27 26 26
1 1 1 2 1 1 2 5 4 1 3 3 3 1 1 1 1 3 5 5 6 8 7 5 3 1 4 5 2 5 10 11 11 11 12 14 15 17 21 24 24 23 22 23 24 23 24 28 30 32 31 27 23 20 19 22 23 23 26 29 31 32 34 36 37 36 35 35 36 37 37 35 34 33 31 28 26 26 26 26 27 27 27 27 25 25 25
1 2 2 2 0 2 2 4 2 0 0 1 1 1 1 1 2 1 3 4 6 7 7 5 4 1 1 2 2 6 7 7 9 11 12 13 14 15 18 22 24 23 21 22 22 22 24 27 29 31 30 26 23 22 23 24 24 24 27 31 33 34 35 36 37 36 35 35 35 37 37 35 34 34 33 31 29 28 27 27 26 26 27 25 23 22 23
0 1 1 1 2 2 4 3 1 0 2 2 2 2 1 1 2 1 1 3 5 6 5 5 4 2 1 1 3 5 6 7 8 9 11 12 13 15 18 21 24 23 21 21 22 22 24 26 28 31 30 26 24 25 26 26 24 25 29 32 33 34 36 36 35 35 34 33 34 35 36 36 35 35 35 33 31 28 27 27 27 26 25 23 20 19 19
1 1 1 2 4 4 3 3 2 3 3 1 2 2 1 2 1 1 1 3 5 6 5 4 4 3 2 2 3 4 6 8 9 9 10 11 13 16 18 20 22 22 21 22 22 21 23 25 27 30 30 28 27 26 27 27 27 28 31 33 34 35 35 34 34 33 32 32 33 34 36 36 35 35 35 33 31 30 30 30 28 25 22 21 19 18 18
2 1 1 2 4 4 4 3 3 2 3 2 1 2 1 2 1 1 2 3 4 6 6 4 3 3 3 3 3 3 5 7 8 9 9 10 12 14 16 17 19 20 20 21 21 21 21 23 26 28 31 31 30 28 27 29 30 32 34 35 35 36 35 34 34 32 32 32 33 35 36 36 36 36 35 35 34 34 33 32 28 25 25 23 19 17 17
1 1 2 1 4 5 4 4 3 3 5 5 3 2 2 2 1 1 2 2 3 5 5 3 2 3 3 3 3 3 4 6 8 10 10 10 12 14 15 17 19 19 19 20 20 20 21 22 24 28 30 30 29 28 29 30 32 33 35 34 35 35 36 35 33 33 33 34 34 35 36 35 35 35 35 36 36 34 33 31 27 27 30 28 21 17 17
0 0 1 2 2 3 4 3 4 5 6 7 6 3 2 1 1 2 2 1 2 3 3 3 4 4 2 2 3 4 4 5 8 10 11 12 13 14 15 18 20 19 18 20 20 20 21 22 24 25 25 25 26 28 30 31 33 34 34 33 32 33 35 35 34 33 34 33 34 35 36 35 33 32 31 33 34 35 35 33 31 32 35 33 28 23 20
0 1 2 0 2 2 4 4 4 4 5 7 7 5 3 3 3 4 5 4 3 4 3 2 4 5 3 2 3 4 4 5 7 8 9 12 15 15 16 17 19 18 18 19 20 20 20 21 22 21 20 23 27 29 30 32 34 35 34 32 31 31 31 33 34 33 32 33 34 35 34 32 30 30 32 34 35 36 37 36 35 36 38 38 36 32 27
1 1 2 2 2 1 2 2 3 4 4 6 7 5 6 7 6 5 5 5 5 4 4 3 4 5 4 2 3 4 3 4 6 8 9 11 14 15 15 16 17 17 17 18 20 19 18 19 20 19 19 23 27 29 31 34 35 35 34 32 30 29 29 31 33 34 32 33 34 34 33 30 27 29 33 36 36 37 37 35 34 34 35 37 37 35 31
0 1 2 1 2 2 1 1 2 3 3 4 4 4 5 5 5 5 5 6 6 5 5 4 4 5 4 2 3 4 3 3 5 7 9 11 13 14 15 17 18 16 16 17 19 18 18 19 20 19 19 22 26 29 31 34 35 36 35 33 30 29 30 31 34 35 35 33 32 32 32 31 30 29 29 29 30 31 31 32 33 34 34 34 34 33 31
1 1 2 3 1 1 2 1 1 3 4 3 1 1 3 3 3 4 4 6 6 5 5 5 4 4 3 2 3 4 4 3 4 7 8 9 11 13 14 16 18 17 16 18 18 18 19 20 20 19 20 23 27 29 31 34 35 36 36 34 32 32 33 33 33 35 35 33 31 31 30 29 29 28 25 22 23 24 25 27 30 32 33 33 32 30 28
2 0 2 4 4 4 3 2 1 4 5 4 1 1 2 2 3 3 4 5 5 4 5 5 4 3 2 2 2 4 4 4 5 8 8 8 10 11 12 14 16 16 16 16 16 18 19 20 19 19 19 22 26 29 31 33 34 35 35 35 34 33 32 32 32 33 33 31 31 31 30 28 28 27 25 24 24 25 25 25 26 28 30 31 30 29 27
2 1 4 4 4 4 3 4 4 4 3 2 1 1 2 3 4 4 5 5 5 5 5 4 4 3 3 2 3 3 4 5 7 8 8 8 9 10 11 12 13 14 14 15 16 18 20 20 19 19 19 22 27 30 31 31 32 33 32 32 33 34 33 33 34 34 33 32 32 30 28 27 27 28 28 29 29 27 24 22 21 24 27 29 29 30 29
1 2 4 5 4 2 2 2 3 2 0 1 1 2 2 2 2 3 4 5 5 6 7 5 4 4 4 4 4 4 4 6 6 6 6 7 8 7 8 11 12 14 16 15 16 19 21 20 19 18 18 23 27 29 30 31 31 31 30 27 28 31 32 32 33 35 33 32 31 29 27 27 29 30 31 31 30 28 26 23 21 23 27 29 31 32 31
1 1 0 1 1 2 3 1 2 3 1 1 1 2 1 1 3 4 5 5 5 5 6 6 5 4 3 3 3 4 4 4 4 3 4 5 5 5 8 10 12 15 15 14 15 19 21 19 18 17 17 22 27 27 29 31 31 30 29 26 25 28 29 30 32 33 32 30 29 29 29 30 31 32 31 30 28 27 27 27 25 25 27 30 31 31 30
2 1 1 2 2 3 4 2 2 3 2 2 2 1 1 2 4 5 5 5 4 4 5 6 6 4 3 2 2 3 3 3 3 4 4 4 5 6 9 11 12 14 14 13 14 18 18 17 16 16 17 22 26 26 28 30 30 30 30 27 26 28 30 31 32 31 29 28 28 28 28 29 30 30 30 29 28 26 26 27 28 28 28 28 28 26 26
2 1 1 2 2 5 6 4 2 2 2 2 3 3 3 3 4 4 4 4 4 4 4 4 4 4 4 3 2 3 2 3 4 5 5 6 8 9 12 13 12 11 11 12 14 17 17 17 17 17 19 23 26 26 28 29 28 29 30 29 29 30 31 32 32 30 28 28 28 28 27 29 30 31 30 29 29 27 27 27 28 28 27 27 27 26 26
4 2 3 3 3 5 5 3 2 2 2 2 4 4 3 4 5 4 3 4 4 4 4 3 3 4 3 3 2 2 3 4 6 6 7 9 10 12 14 15 12 9 9 12 15 17 18 17 16 16 20 24 25 25 27 27 25 24 25 26 27 29 31 31 31 30 29 29 29 29 28 29 29 30 30 29 28 28 28 27 26 26 27 27 27 27 27
6 4 3 3 3 4 4 2 2 3 2 2 3 4 3 3 4 4 3 3 3 2 3 4 4 3 3 3 2 3 4 5 6 7 8 9 11 13 15 14 11 8 9 12 17 19 18 15 13 14 19 23 24 24 25 26 24 22 21 22 24 27 29 29 30 30 29 29 29 30 30 29 29 29 29 28 27 28 28 26 25 26 28 28 28 28 27
8 5 4 4 4 4 3 2 2 3 2 2 2 2 2 2 3 3 2 2 2 2 3 3 3 3 3 4 4 5 6 6 6 6 6 7 10 13 14 11 8 7 7 10 15 18 17 14 14 16 18 20 22 24 25 25 24 22 21 22 24 27 28 29 29 29 28 29 30 31 31 30 30 29 29 29 29 29 28 25 25 28 30 30 30 30 28
6 5 6 7 6 5 5 4 3 3 3 2 2 2 2 2 3 2 2 1 2 3 3 4 4 5 6 6 6 5 4 4 4 3 4 6 8 11 12 9 7 5 5 6 9 13 15 15 15 16 16 18 21 23 25 25 25 23 24 25 26 27 28 29 29 29 30 30 31 31 31 30 30 30 30 31 31 30 28 26 27 29 31 31 30 29 28
2 2 4 5 4 4 5 6 5 5 5 4 3 2 2 2 2 2 2 2 3 3 4 5 7 9 9 8 7 5 4 3 2 2 4 6 8 10 10 9 7 5 4 4 6 9 11 13 14 14 14 16 19 21 23 25 24 23 24 26 27 28 29 30 30 30 31 30 30 30 30 30 30 29 30 30 29 27 26 27 28 29 29 29 28 26 25
1 3 4 3 3 3 5 6 5 5 6 5 4 4 3 2 2 3 3 3 3 4 4 6 9 10 10 8 6 5 4 3 2 2 4 6 7 8 8 7 6 5 5 4 5 6 8 10 13 13 13 14 16 18 21 23 23 23 24 26 27 28 29 30 30 30 29 29 30 31 31 30 29 28 28 28 26 25 25 26 28 28 28 27 25 23 22
1 3 4 4 3 4 5 5 6 7 6 5 4 4 4 3 3 4 5 5 5 6 6 8 9 8 6 5 4 5 4 4 3 3 4 5 7 7 6 6 5 5 4 3 3 5 7 9 10 11 12 13 14 17 19 21 22 23 25 26 26 27 28 29 29 29 28 29 30 30 29 28 27 26 26 27 27 26 26 27 28 28 28 27 25 22 22
3 4 5 5 5 5 6 7 8 9 9 7 4 4 5 6 6 7 7 7 7 8 9 9 8 6 5 5 5 6 6 6 6 5 4 5 5 4 4 3 3 2 2 2 3 3 5 7 9 11 12 13 14 15 17 19 21 23 24 25 26 27 28 29 29 29 29 29 29 29 28 28 27 26 26 26 26 26 26 26 27 27 28 27 25 23 22
6 5 6 6 7 7 8 8 7 8 9 9 6 4 6 8 8 8 8 8 7 7 8 7 6 5 5 4 4 5 6 6 6 5 5 6 5 4 4 3 2 2 2 2 3 2 3 5 8 10 11 12 13 14 15 17 20 23 24 26 27 27 28 29 28 28 29 29 28 28 28 27 27 26 26 26 26 25 25 26 26 26 27 26 24 23 23
6 5 6 7 7 7 8 7 6 6 9 11 10 8 8 10 9 7 7 7 6 7 7 6 4 3 3 4 4 4 4 5 5 5 7 8 8 7 6 5 3 3 3 2 1 1 2 4 7 9 10 10 12 13 14 16 20 22 23 24 25 26 27 28 28 28 28 28 27 27 27 27 26 25 25 26 26 26 26 26 26 26 26 25 24 23 24
5 5 6 6 7 6 6 7 7 7 8 10 11 11 11 10 8 6 6 6 6 6 7 6 5 4 4 4 4 4 4 4 5 5 7 7 6 5 4 4 4 4 4 3 3 3 3 3 5 7 9 10 11 12 12 15 20 22 23 23 24 24 25 26 27 27 27 27 27 27 27 27 25 24 24 24 25 26 25 25 25 25 25 25 24 24 24
6 7 7 7 6 6 7 7 7 7 7 8 10 11 10 8 6 6 6 6 5 5 6 7 7 6 5 5 5 5 4 5 5 5 6 6 6 4 3 3 5 6 5 4 4 4 3 3 4 5 6 8 10 11 11 14 19 22 22 22 22 23 24 25 25 25 25 25 26 26 26 25 24 22 22 22 23 24 23 22 22 23 23 24 24 24 24
6 7 7 6 6 6 7 7 7 6 6 7 9 10 8 6 6 6 7 6 5 5 5 6 6 6 6 6 6 5 5 4 4 5 6 7 8 7 6 4 5 5 5 5 4 4 3 3 3 3 4 6 8 9 10 14 18 20 20 21 21 22 22 24 24 23 23 24 24 24 24 23 22 22 21 21 21 20 19 18 19 20 22 23 23 23 22
5 6 6 6 6 7 7 6 6 5 5 6 8 8 7 6 6 6 6 5 5 4 4 4 4 4 5 5 4 4 4 4 4 4 5 6 6 7 6 5 4 4 5 5 5 4 4 3 3 3 3 4 5 7 9 13 16 18 19 20 20 20 20 22 21 20 21 23 24 24 23 23 22 21 21 21 21 20 19 19 19 20 20 21 20 20 19
5 5 8 9 9 8 7 6 6 6 7 8 8 7 6 6 6 5 5 4 4 4 4 4 4 4 4 4 4 4 4 4 4 4 4 4 4 5 5 5 4 4 4 5 5 5 4 4 4 4 3 3 4 6 8 11 14 16 18 18 18 18 19 21 20 19 20 23 24 23 23 23 23 22 22 21 20 20 19 19 18 17 17 17 17 15 13
6 7 9 9 9 8 7 8 8 9 9 8 6 5 5 5 5 5 5 4 3 4 4 4 5 5 5 5 5 5 5 5 5 4 4 4 4 4 5 5 5 5 5 5 6 6 6 5 5 5 4 4 4 6 8 10 12 15 16 17 17 18 19 20 20 20 21 22 22 22 22 22 22 21 20 18 18 18 17 16 15 14 14 13 12 10 9
7 7 7 7 7 8 9 9 9 8 7 5 4 3 5 6 6 6 5 4 4 4 5 5 5 6 6 7 6 6 5 5 4 3 4 5 5 5 5 5 5 5 6 6 6 7 7 7 6 6 6 5 5 5 6 8 10 12 14 15 15 17 18 18 19 19 20 20 20 21 20 20 19 19 18 17 17 17 16 14 13 12 11 10 10 11 11
7 6 6 7 8 9 9 8 6 5 4 4 4 4 5 6 6 6 6 5 4 5 5 5 5 5 6 6 7 7 6 6 4 3 4 5 6 5 5 5 6 6 7 7 7 7 7 7 7 7 6 5 5 5 5 7 9 10 12 13 14 15 15 17 18 18 19 20 20 19 19 18 18 18 19 19 18 16 13 11 10 9 9 9 10 11 12
6 7 7 8 7 7 6 4 3 2 3 5 6 6 6 7 7 5 4 4 4 4 4 4 5 5 5 5 6 6 7 7 7 6 6 6 7 6 6 6 6 6 7 8 7 6 6 7 7 6 6 5 5 5 5 5 7 8 10 11 12 13 14 15 16 17 18 18 18 18 17 18 18 19 19 18 16 13 11 9 8 7 6 6 7 7 9
7 7 7 6 6 6 6 4 2 3 6 7 7 6 7 6 5 4 4 4 4 3 3 3 4 4 4 4 5 5 6 6 7 7 7 7 7 7 6 6 6 7 7 7 7 6 6 6 6 5 5 5 4 4 4 5 6 8 9 10 12 13 14 14 15 16 16 16 16 16 16 16 17 17 17 16 15 13 12 10 8 7 5 5 6 8 9
5 4 3 2 3 5 6 4 1 2 5 6 6 7 8 6 4 4 5 5 3 3 3 3 3 4 4 4 4 4 4 5 5 6 6 7 7 7 6 6 6 6 6 6 6 6 5 5 5 4 4 4 4 4 4 5 6 8 9 11 12 13 14 14 14 15 16 15 15 15 15 15 16 17 17 16 14 13 11 10 8 7 6 6 8 10 10
12 11 9 7 6 4 3 3 5 5 2 1 3 5 7 6 4 3 5 5 3 2 2 3 4 5 5 4 4 4 4 4 4 4 4 5 6 6 6 6 5 5 5 5 5 5 5 4 4 3 3 4 4 4 5 5 6 7 9 10 12 13 13 14 15 16 15 14 14 14 15 16 16 15 13 12 10 9 8 8 8 7 7 7 8 9 11
Wind_Direction
269 263 260 255 243 243 223 192 176 177 184 191 201 214 183 166 205 219 213 215 237 259 273 319 109 185 182 176 183 179 172 172 170 166 164 166 170 168 164 164 163 162 164 166 166 163 162 164 164 161 160 161 163 169 178 181 179 177 177 178 178 179 180 179 178 179 179 180 180 180 179 178 178 178 178 177 177 178 181 183 183 183 184 185 183 181 180
285 273 264 244 216 221 231 213 190 180 184 192 201 206 193 193 230 274 287 268 267 265 276 1 46 172 156 153 168 171 171 170 169 170 170 172 173 169 162 161 164 168 169 168 166 164 163 164 164 160 161 163 162 165 175 180 180 179 179 179 179 179 178 178 178 179 179 179 180 180 179 179 179 178 179 179 179 181 183 185 186 186 187 187 186 184 182
290 279 275 245 205 202 215 216 203 187 181 188 200 205 189 182 235 256 273 291 282 272 283 47 89 147 139 157 171 172 174 173 172 174 173 172 171 169 168 168 169 170 169 169 168 168 168 168 167 163 162 167 168 166 172 178 180 180 179 179 179 179 178 178 178 178 178 178 180 180 180 180 179 179 180 180 181 183 184 187 189 190 189 188 188 187 185
287 296 303 231 175 178 210 220 208 193 183 184 195 196 173 178 213 227 234 252 260 269 78 87 153 157 159 174 175 173 175 175 175 174 173 173 174 175 176 174 172 172 171 171 172 172 173 172 170 167 165 168 170 169 173 177 179 180 179 180 181 180 180 179 178 178 178 178 179 180 180 180 179 180 181 182 184 185 186 189 191 192 191 190 189 189 188
290 331 6 141 135 139 222 230 207 191 184 177 171 178 186 193 201 200 206 229 247 309 94 194 195 185 190 188 180 178 174 172 174 175 175 179 180 181 180 176 175 176 175 176 177 176 175 173 170 169 168 168 170 175 178 178 179 179 179 180 180 179 180 181 179 180 180 179 179 180 180 180 180 181 182 183 185 187 188 192 193 192 191 190 190 190 189
287 331 9 146 149 177 222 239 197 188 185 178 174 187 201 199 196 199 237 249 265 13 214 228 217 205 205 191 183 183 172 168 174 179 181 183 183 183 182 178 177 178 178 177 175 174 173 170 167 167 168 169 173 177 180 180 180 181 181 180 180 179 181 181 180 180 179 178 179 180 180 181 181 182 183 185 187 189 192 193 191 190 190 190 190 189 189
281 329 251 173 176 217 313 15 307 195 185 183 187 195 202 201 202 219 248 255 264 253 230 246 261 251 227 168 174 180 178 176 176 179 182 184 182 183 182 180 178 177 175 171 168 169 169 167 165 164 165 170 174 176 180 181 181 182 183 182 183 182 181 181 181 181 180 180 179 179 179 180 181 182 185 186 188 191 193 191 189 188 188 189 189 188 188
277 291 214 192 224 337 28 27 17 151 132 162 189 202 213 207 202 211 231 245 265 266 239 238 247 218 167 165 183 184 185 186 180 178 181 183 184 184 183 182 179 174 170 166 165 167 165 164 167 167 167 170 171 173 179 181 181 183 184 184 185 184 182 182 182 179 177 175 174 175 177 178 180 183 186 187 189 192 192 190 188 187 187 188 189 188 188
271 270 242 269 302 279 96 72 167 171 139 141 176 203 214 204 194 204 225 241 242 233 225 191 169 161 145 170 206 199 195 191 184 181 179 180 183 184 183 179 171 162 161 162 164 164 162 164 168 169 170 171 170 173 180 181 180 182 184 185 185 183 181 178 174 168 167 169 172 178 181 181 183 186 187 188 190 192 192 189 187 187 187 188 189 188 187
263 279 290 258 219 184 140 79 19 341 242 135 147 202 210 195 195 203 215 225 207 194 184 167 170 166 159 216 225 201 194 190 182 178 174 172 176 178 177 171 160 157 160 163 166 166 165 167 171 172 174 173 172 175 179 180 179 178 182 186 185 182 178 173 169 170 175 181 184 187 188 188 188 188 189 190 192 193 192 190 189 188 188 188 189 189 188
242 251 293 232 198 124 40 301 342 334 247 149 143 200 209 185 190 202 212 218 202 181 169 170 176 176 190 233 233 179 182 185 178 171 172 173 174 175 176 173 169 165 162 161 164 165 165 169 173 176 177 175 173 174 176 178 179 177 181 187 187 182 178 174 174 177 182 186 189 191 193 192 190 189 190 191 193 194 194 193 191 189 188 188 188 188 189
208 180 277 254 238 53 321 287 315 316 201 152 165 201 199 163 180 198 207 210 195 176 164 166 181 211 219 256 324 162 173 178 174 168 170 173 173 174 178 178 174 166 159 160 164 167 170 171 173 176 176 174 175 177 175 177 180 182 185 188 186 182 179 176 177 180 184 187 189 192 193 192 191 192 192 192 194 196 196 194 191 189 188 188 187 186 187
162 160 297 271 260 284 285 296 311 277 189 178 189 197 159 121 178 194 205 205 181 166 162 159 174 247 271 304 324 164 166 171 172 169 166 166 168 171 175 175 169 163 164 168 171 172 172 169 171 175 176 175 177 179 176 178 184 187 187 186 181 179 178 177 178 182 187 189 189 191 193 192 192 193 193 195 199 200 196 193 191 189 187 187 186 185 186
112 85 322 292 248 105 340 319 314 249 188 180 183 150 48 347 215 179 195 198 167 159 163 151 137 230 277 305 316 157 162 165 164 163 163 163 165 167 168 168 167 166 169 171 170 169 169 168 172 175 175 176 180 179 179 186 189 186 184 182 179 178 177 177 179 184 189 190 188 189 191 191 190 189 191 197 201 201 197 194 192 190 188 186 185 184 185
98 56 11 313 248 89 2 331 319 212 257 323 323 12 38 299 299 228 182 181 163 162 164 145 124 146 303 350 100 149 160 157 153 158 162 164 165 165 164 167 170 168 168 170 169 166 167 170 173 175 175 177 178 180 187 193 190 184 183 182 180 178 177 178 182 186 189 188 187 188 189 191 190 189 190 194 197 198 197 192 189 189 188 187 184 182 183
144 88 102 287 310 337 331 329 348 1 334 321 296 309 32 27 306 288 133 147 164 167 162 151 148 150 135 113 139 153 159 159 157 161 165 165 166 167 168 171 171 168 167 170 169 167 168 171 174 177 178 177 177 184 192 193 186 183 183 181 179 179 178 179 183 186 187 187 187 188 190 192 193 192 191 191 192 195 196 191 186 186 187 186 183 180 179
250 230 224 286 303 305 303 298 278 299 318 306 261 286 22 71 351 318 65 118 158 165 161 167 181 185 172 167 172 170 167 167 165 163 167 168 167 169 171 171 171 170 169 168 166 167 171 173 175 179 181 179 181 188 192 189 184 183 182 180 180 180 179 180 183 184 184 185 186 188 190 192 192 192 190 188 189 193 193 189 185 184 184 185 184 180 177
259 238 217 283 307 318 330 316 276 283 345 0 318 310 26 60 30 354 60 99 144 165 174 182 184 180 170 165 180 180 163 162 165 164 163 162 162 167 169 168 169 171 168 165 166 167 170 173 177 181 184 184 186 190 190 187 186 184 180 179 179 179 180 181 183 182 181 182 185 189 191 192 193 193 191 189 190 191 190 187 184 183 184 185 183 180 179
248 162 142 340 314 310 324 336 342 3 8 0 350 352 15 25 25 37 56 92 131 150 168 166 116 129 152 148 147 151 146 155 167 172 169 165 164 166 165 164 167 169 167 167 168 166 166 172 179 183 186 189 190 189 187 186 186 183 180 178 178 179 180 181 182 182 182 182 186 189 189 190 191 193 194 195 193 191 189 188 186 186 187 186 183 182 181
233 245 302 350 334 298 298 340 15 5 349 347 353 1 356 343 64 74 69 89 112 108 122 124 102 100 115 128 130 138 147 158 168 174 174 172 171 168 161 161 166 168 168 170 170 167 168 174 179 182 185 188 190 188 185 184 183 181 179 179 179 179 181 181 182 183 183 184 186 187 188 189 190 193 195 196 194 193 193 194 193 191 189 188 188 187 183
147 226 260 246 67 344 325 357 20 352 334 337 338 341 357 14 37 60 65 67 70 71 75 81 85 87 88 104 126 133 144 156 166 173 170 169 172 169 162 163 168 169 168 169 168 168 170 173 176 178 180 185 189 188 185 184 183 180 179 179 179 179 181 182 182 182 184 185 186 186 187 189 191 196 199 198 198 201 203 204 203 200 197 194 193 191 188
135 157 233 192 127 303 299 356 359 328 325 328 326 342 13 15 9 18 40 56 65 71 66 40 47 71 81 89 113 123 136 152 159 163 161 163 169 169 163 165 171 170 168 168 167 167 169 170 174 175 175 180 186 186 185 185 183 180 178 177 177 179 180 182 183 183 184 186 187 187 187 188 191 198 202 203 205 209 210 210 210 209 207 204 201 196 194
1 269 246 173 49 338 291 57 347 312 307 310 313 345 6 359 354 359 18 39 44 46 49 39 36 56 73 86 100 104 110 125 140 152 157 161 166 166 163 168 173 172 168 168 167 167 167 169 174 174 172 176 182 185 186 186 185 182 179 176 176 179 182 184 186 187 186 185 186 188 190 191 193 194 197 202 207 211 212 212 211 212 213 212 209 204 201
316 248 177 158 160 219 184 118 335 288 272 267 272 3 345 333 351 6 21 38 35 28 37 40 30 39 69 98 104 105 116 127 138 150 153 155 159 160 161 168 173 173 169 169 170 168 168 171 173 171 171 177 183 185 187 187 185 184 181 178 178 181 185 188 189 188 187 186 186 187 190 192 192 190 190 194 200 205 210 212 213 215 216 215 215 213 210
280 352 155 173 177 164 139 128 208 240 247 246 234 27 351 341 7 22 38 43 31 20 34 46 40 36 58 95 99 106 122 131 137 143 143 144 153 158 163 169 172 171 168 168 167 166 167 170 171 170 171 178 183 186 187 187 186 186 185 184 184 184 186 188 188 187 188 188 187 189 190 189 188 187 188 191 193 198 206 212 216 220 221 220 219 218 215
245 141 136 144 139 132 142 165 182 204 244 254 224 51 20 16 26 43 52 47 39 31 33 45 57 51 56 88 92 94 112 127 137 143 143 148 157 164 169 171 168 166 165 163 165 168 170 170 170 170 173 179 184 187 188 186 186 187 187 188 190 190 189 189 188 188 189 190 189 189 188 187 187 188 191 194 193 195 200 205 210 216 220 220 219 218 218
221 185 142 120 115 158 228 200 153 141 311 310 117 99 59 25 42 70 69 56 49 44 39 44 62 71 81 91 87 86 107 126 139 143 144 152 160 164 166 164 161 163 164 163 168 173 172 170 171 173 178 185 189 191 191 188 187 187 187 188 191 192 191 191 191 191 192 192 192 190 188 188 189 190 192 194 194 194 195 197 201 208 212 212 213 215 217
124 269 308 92 143 209 247 275 104 112 105 28 87 100 86 48 56 63 56 40 26 27 36 40 45 61 91 97 93 102 114 123 132 131 133 147 149 145 153 157 160 164 164 161 166 172 172 172 174 175 181 190 193 193 193 193 191 189 188 187 188 190 191 192 193 193 193 193 193 193 193 193 193 193 193 193 195 196 197 199 203 208 210 209 210 213 219
147 174 317 305 248 175 158 141 110 98 85 71 77 73 63 72 67 54 41 29 13 12 26 27 28 45 71 86 101 117 125 130 135 134 138 145 144 148 157 159 158 161 162 159 165 171 173 174 176 176 182 192 195 194 194 193 192 192 191 190 190 192 193 194 194 193 193 193 193 194 194 194 193 193 193 194 196 197 197 200 205 208 209 210 210 213 219
148 155 245 252 200 150 134 127 117 98 83 83 78 53 40 71 79 59 36 33 33 31 23 12 21 47 54 50 70 96 118 135 139 141 147 150 153 158 160 156 152 156 164 168 171 174 176 180 182 183 188 193 194 194 194 193 191 192 193 193 194 197 197 196 195 193 192 192 192 191 191 192 192 193 194 195 197 198 200 204 207 208 209 211 211 212 216
123 150 180 177 150 129 121 118 124 109 65 68 90 81 67 80 87 73 45 41 45 41 32 26 33 39 28 15 37 79 110 124 131 138 144 149 156 162 164 164 164 165 171 175 177 179 183 185 186 189 194 195 193 193 194 192 188 187 190 193 197 200 201 199 196 194 192 190 189 188 189 190 191 193 195 196 198 201 203 204 205 207 209 211 211 214 217
122 129 142 127 103 106 110 114 127 122 95 86 106 102 85 87 96 93 74 62 58 47 43 41 31 17 8 13 47 82 98 107 118 129 135 145 157 167 173 178 179 173 171 178 184 187 188 185 184 191 197 198 195 194 195 192 187 185 187 190 193 197 199 198 196 194 192 190 188 188 189 189 190 193 197 199 201 202 204 204 205 208 210 211 212 215 218
137 134 142 140 127 127 139 153 137 122 108 88 92 94 81 82 94 95 86 75 71 64 57 47 29 23 42 69 85 91 94 99 106 115 126 145 164 175 181 184 179 172 178 189 195 195 193 189 191 197 200 200 199 199 199 196 192 189 189 191 193 195 196 196 195 193 191 189 190 191 192 192 193 196 199 201 202 203 204 205 208 211 212 213 215 218 222
153 160 174 171 161 156 163 167 157 130 114 94 81 93 94 86 91 99 94 71 62 58 54 50 50 61 76 84 84 82 88 97 102 112 139 160 172 182 186 186 181 179 184 191 198 200 199 198 198 200 201 203 203 203 202 201 199 197 197 197 197 195 194 194 194 192 191 192 193 194 195 195 197 200 202 202 202 204 205 207 210 214 215 216 217 221 225
121 117 151 160 158 156 156 155 154 152 144 134 125 121 113 105 109 107 85 68 63 59 61 71 79 82 82 77 68 61 61 64 73 128 170 179 183 185 184 182 181 176 164 162 182 198 203 204 202 199 200 203 204 205 206 205 202 200 200 200 198 196 195 194 194 195 195 195 195 195 196 198 200 203 205 204 204 205 207 210 213 215 216 217 220 223 226
119 117 127 131 126 129 137 141 145 148 142 135 134 134 129 123 121 109 93 87 85 77 76 82 81 76 71 64 58 56 54 51 63 127 168 181 186 183 178 179 183 179 164 158 169 184 194 201 203 201 200 201 203 206 209 207 202 199 200 200 198 197 196 195 195 196 197 196 196 197 199 201 203 205 206 206 206 208 210 212 214 216 218 221 225 226 226
106 129 131 129 123 122 124 128 134 134 127 119 124 131 132 129 122 111 99 92 87 82 79 79 76 71 66 69 73 70 63 59 66 94 137 163 172 172 170 174 181 179 167 154 159 175 187 195 200 202 202 202 204 208 210 208 204 201 201 200 197 195 194 193 194 195 197 198 199 200 201 201 203 205 207 208 210 211 212 213 215 218 221 225 229 229 228
82 96 110 115 115 113 112 119 130 130 123 116 113 122 131 134 127 115 103 91 84 80 77 77 80 85 90 90 84 73 66 68 74 84 111 142 155 157 156 160 168 168 153 123 117 148 178 188 193 199 203 206 209 212 212 210 207 204 201 199 198 197 196 194 194 196 198 200 201 201 202 202 203 205 207 209 211 212 213 214 217 221 224 228 231 231 231
98 97 103 107 108 108 110 116 124 127 126 127 125 123 133 137 131 118 104 90 81 76 71 71 80 88 87 86 85 74 67 71 77 85 104 123 128 117 101 88 91 120 134 117 96 102 147 178 191 201 208 211 213 215 214 210 208 205 203 201 200 199 198 196 195 196 198 200 200 201 202 203 203 204 207 209 210 211 214 217 221 225 229 233 235 235 234
112 114 115 113 112 113 117 119 118 120 128 133 136 140 145 145 136 119 104 91 80 71 64 64 71 70 58 63 76 76 70 71 80 97 114 122 121 110 97 88 93 117 137 146 146 144 158 179 194 205 213 215 215 216 214 209 206 205 203 201 200 198 197 197 196 196 197 198 199 199 201 203 204 206 207 209 209 212 216 221 224 228 232 234 237 238 237
112 116 117 114 114 117 120 119 117 118 125 132 138 144 148 146 136 121 110 103 88 68 55 55 65 74 72 74 80 81 75 71 75 94 114 123 122 114 103 96 100 112 124 138 153 162 169 180 195 209 217 218 218 219 215 207 204 204 204 202 201 199 197 197 197 197 198 198 198 199 201 202 203 205 207 210 212 215 218 222 226 230 233 236 239 240 240
119 121 118 116 117 119 120 120 120 119 121 129 137 143 145 141 134 126 119 111 95 69 53 51 55 64 76 85 89 90 82 73 73 84 94 100 103 103 101 100 104 108 112 117 125 134 148 165 183 201 211 216 220 222 216 206 204 205 206 206 205 203 200 198 197 199 200 200 199 200 201 201 202 205 207 211 214 218 220 222 226 230 234 237 239 240 241
127 127 122 120 121 122 121 121 123 122 120 129 140 145 144 139 138 136 128 116 97 74 61 55 51 55 65 75 85 91 89 84 85 90 92 92 90 87 88 98 108 109 108 107 108 111 124 147 169 186 196 206 214 218 214 207 204 204 205 206 205 202 201 200 199 199 200 201 201 200 201 202 205 208 210 212 216 219 221 223 227 231 235 237 238 239 241
129 128 124 124 126 125 122 122 126 129 131 141 150 151 146 140 143 143 135 123 111 95 80 67 62 65 68 68 72 83 92 95 96 97 101 101 92 81 80 90 104 109 109 106 99 97 104 117 132 152 168 185 199 208 209 206 204 202 203 203 200 196 197 199 199 198 200 203 204 204 205 207 209 211 213 215 218 222 225 229 232 235 238 240 240 240 240
124 126 128 129 129 130 132 135 141 145 145 147 149 149 144 144 151 151 140 131 129 123 107 90 84 87 87 85 87 94 102 109 105 94 91 96 87 72 70 78 90 103 110 103 92 89 94 100 106 115 125 142 171 191 201 205 204 204 203 201 197 195 197 201 202 202 205 207 208 208 210 211 212 213 216 219 222 226 231 234 235 238 240 239 237 237 240
126 133 136 133 132 137 141 141 142 145 145 143 142 145 148 154 162 161 152 144 141 135 124 113 105 101 100 102 107 110 112 113 108 96 89 92 91 81 75 76 81 94 104 100 92 90 90 90 94 100 106 118 148 178 195 201 203 203 203 201 199 200 203 205 206 207 209 210 210 212 213 215 215 218 221 225 228 230 231 231 231 233 234 233 235 245 263
134 139 137 130 130 137 139 136 137 143 148 147 146 153 158 161 165 166 162 153 145 139 135 129 120 112 106 102 104 111 118 117 109 98 99 103 101 92 82 78 82 93 100 99 95 94 94 94 96 98 101 112 137 167 190 198 200 200 202 201 201 203 205 207 208 209 211 212 212 213 215 217 218 220 221 223 224 224 223 224 227 232 237 243 254 267 278
140 136 130 129 134 141 143 142 139 144 155 155 151 153 157 158 159 161 162 158 151 145 141 136 132 128 121 111 105 103 104 101 93 92 109 117 114 104 91 83 85 93 97 97 94 95 97 100 100 99 102 115 135 157 181 195 199 201 201 202 202 203 204 205 206 209 210 210 209 210 212 215 218 219 218 217 216 216 217 221 228 234 239 248 259 268 275
126 122 124 131 134 137 140 144 147 162 166 159 153 155 158 155 153 156 161 160 153 147 145 143 140 135 130 126 118 108 97 90 88 93 107 118 121 117 109 99 96 98 99 98 96 97 100 102 103 102 105 119 138 157 173 187 197 202 204 206 208 209 209 209 209 209 209 208 208 209 211 214 217 217 215 213 212 213 215 217 219 223 231 243 253 261 268
130 131 133 140 151 162 165 165 177 194 185 175 169 172 172 163 155 160 168 165 156 149 146 147 148 143 136 134 132 123 111 102 98 96 100 109 118 121 119 114 109 106 103 100 98 99 99 100 101 103 110 124 144 165 177 186 196 203 206 207 208 209 210 211 210 208 206 204 203 203 205 208 209 207 204 202 203 205 207 209 214 226 244 255 254 254 260
111 118 125 135 164 180 180 174 199 228 203 189 180 182 185 181 164 159 165 165 163 157 150 141 143 149 145 139 137 134 128 120 112 104 102 105 109 112 114 119 121 120 114 107 103 101 104 107 108 111 122 138 154 169 182 190 197 204 207 207 206 205 205 204 201 199 199 199 200 201 201 201 197 194 194 197 201 203 202 205 217 236 258 267 257 251 253
68 64 64 65 60 62 83 69 32 14 353 225 201 198 199 199 187 175 182 189 187 174 151 133 139 153 162 164 160 154 143 131 126 119 108 105 107 109 111 117 127 135 135 129 119 111 110 116 122 128 141 157 166 174 181 187 195 201 205 206 206 206 205 201 198 196 198 201 204 204 200 195 191 192 196 202 208 208 208 215 232 255 280 292 278 260 253